TimeEET,TemperatureF,Dew PointF,Humidity,Sea Level PressureIn,VisibilityMPH,Wind Direction,Wind SpeedMPH,Gust SpeedMPH,PrecipitationIn,Events,Conditions,WindDirDegrees,DateUTC
2:00 AM,50,40,59,30.06,6,West,8.1,,,,,260,2013-01-06 00:00:00
2:00 AM,50.0,41.0,71,30.04,-9999.0,West,8.1,-,N/A,,Clear,260,2013-01-06 00:00:00
3:00 AM,48.2,41.0,76,30.04,-9999.0,WSW,9.2,-,N/A,,Clear,250,2013-01-06 01:00:00
4:00 AM,48.2,41.0,76,30.01,-9999.0,WSW,8.1,-,N/A,,Clear,240,2013-01-06 02:00:00
5:00 AM,44.6,41.0,87,30.01,-9999.0,WSW,9.2,-,N/A,,Clear,240,2013-01-06 03:00:00
6:00 AM,44.6,41.0,87,30.04,-9999.0,SW,9.2,-,N/A,,Clear,230,2013-01-06 04:00:00
7:00 AM,42.8,41.0,93,30.04,-9999.0,SW,2.3,-,N/A,,Clear,220,2013-01-06 05:00:00
8:00 AM,45,40,77,30.07,6,West,2.3,,,,,260,2013-01-06 06:00:00
8:00 AM,44.6,41.0,87,30.06,-9999.0,West,2.3,-,N/A,,Clear,260,2013-01-06 06:00:00
9:00 AM,50.0,41.0,71,30.09,-9999.0,West,11.5,-,N/A,,Clear,260,2013-01-06 07:00:00
10:00 AM,53.6,41.0,62,30.09,-9999.0,West,16.1,-,N/A,,Clear,270,2013-01-06 08:00:00
11:00 AM,59.0,41.0,51,30.06,-9999.0,West,16.1,-,N/A,,Clear,270,2013-01-06 09:00:00
12:00 PM,64.4,41.0,42,30.04,-9999.0,West,17.3,-,N/A,,Clear,270,2013-01-06 10:00:00
1:00 PM,64.4,42.8,45,30.04,-9999.0,West,20.7,-,N/A,,Clear,270,2013-01-06 11:00:00
2:00 PM,66,42,30,29.98,6,West,23.0,,,,,270,2013-01-06 12:00:00
2:00 PM,66.2,42.8,43,30.01,-9999.0,SW,23.0,-,N/A,,Clear,220,2013-01-06 12:00:00
3:00 PM,66.2,42.8,43,29.98,6.2,West,23.0,-,N/A,,Scattered Clouds,270,2013-01-06 13:00:00
4:00 PM,66.2,41.0,40,29.98,6.2,West,23.0,-,N/A,,Scattered Clouds,270,2013-01-06 14:00:00
5:00 PM,62.6,44.6,52,29.98,6.2,West,20.7,-,N/A,,Scattered Clouds,270,2013-01-06 15:00:00
6:00 PM,59.0,41.0,51,29.98,6.2,West,17.3,-,N/A,,Scattered Clouds,270,2013-01-06 16:00:00
7:00 PM,57.2,44.6,63,30.01,-9999.0,West,11.5,-,N/A,,Clear,270,2013-01-06 17:00:00
8:00 PM,56,45,57,30.02,6,WSW,9.2,,,,,250,2013-01-06 18:00:00
8:00 PM,55.4,44.6,67,30.01,-9999.0,WSW,9.2,-,N/A,,Clear,250,2013-01-06 18:00:00
9:00 PM,53.6,42.8,67,30.01,-9999.0,WSW,9.2,-,N/A,,Clear,240,2013-01-06 19:00:00
10:00 PM,51.8,42.8,71,30.01,-9999.0,WSW,10.4,-,N/A,,Clear,240,2013-01-06 20:00:00
11:00 PM,51.8,42.8,71,30.01,-9999.0,SW,10.4,-,N/A,,Clear,220,2013-01-06 21:00:00